O3B FM7 (40080 NORAD) Tracking and Keplerian Element Data

This shows tracking and keplerian element data for the satellite.

Feedback or suggestion? Click here.




ElementValue
Catalog40080
NameO3B FM7
Epoch Orbit8075
Epoch Day344.15952143
Epoch Year2018
RAAN8.3635
Inclination0.0483
Eccentricity0.0002618
Argument of Perigee250.5261
Mean Anonmoly101.0833
Mean Motion5.00116381
Decay Rate-2.5E-07
L11 40080U 14038B 18344.15952143 -.00000025 00000-0 00000+0 0 9995
L22 40080 0.0483 8.3635 0002618 250.5261 101.0833 5.00116381 80753

Live tracking and technical data element details for O3B FM7 (NORAD 40080). O3B FM7 can be tracked NOW for your location showing map with azimuth and elevation plus other details from your city location.

Track the satellite on the map from your city or location and see movement details for azimuth, elevation, latitude, longitude, range, height, and movement on the map or in text.







IsCatalogInMostPopularTable: catalog: 40080, numindb: 91
Update: records affected: 1



GetName: 40080 O3B FM7

Hit Count: updated at: Thu, 13 Dec 2018 04:16:15 GMT